Weather in Kigoma

Tanzania     4°53′50″S   29°39′23″E
temp.,
°C
wind,
m/s
gust,
m/s
humid.,
%
clouds,
%
prec.,
mm/h
press.,
hPa
HPBL,
m
14 april, wed
wed1400:00+20ene2387100 0.4 101487
03:00+20ene2388100 0.4 101295
06:00+20ene2288100 1.0 101392
09:00+21e3489100 3.1 1015175
12:00+24ene3377100 3.6 1014480
15:00+25ssw217325 6.9 1011586
18:00+24s337880 2.2 1010335
21:00+22se2385100 3.8 1012124
15 april, thu
thu1500:00+22s2484100 1.8 1014231
03:00+21s4789100 6.6 1012367
06:00+21s5891100 5.8 1012478
09:00+21s3494100 23.6 1015291
12:00+20se3495100 8.4 1016313
15:00+20ese2392100 9.6 1013283
18:00+20ese2390100 0.1 1012198
21:00+20ne1189100 0.2 1013145
16 april, fri
fri1600:00+20nne118997 0.0 1014122
03:00+20e1189100 0.1 1012110
06:00+20ne2292100 2.2 1013153
09:00+20e2292100 3.4 1015189
12:00+21ene1190100 0.0 1015164
15:00+22n118693 0.1 1012191
18:00+24sw11786 0.0 1011235
21:00+21nne118223 0.0 1013134
17 april, sat
sat1700:00+20ne228882 0.0 101478
03:00+20ene1186100 0.0 101277
06:00+20ene228584 0.0 101383
09:00+22e357824 0.0 1015305
12:00+26ese346689 0.3 1013950
15:00+24ne237899 1.9 1011373
18:00+24ese127752 0.8 1011212
21:00+22ese228262 1.0 1013164
18 april, sun
sun1800:00+21ene3488100 0.9 1014122
03:00+20ene4790100 2.9 1013239
06:00+20ne498942 1.8 1014359
09:00+21ene510868 1.8 1017688
12:00+25e467040 0.1 10151240
15:00+25e357465 2.8 1013852
18:00+24e46797 2.5 1012523
21:00+21ene48875 2.6 1014250